Regional Weather Roundup
Issued by NWS

Home | Current Version | Previous Version | Graphics & Text | Print | Product List | Glossary On
Versions: 1 2 3 4 5 6 7 8 9 10 11 12 13 14 15 16 17 18 19 20 21 22 23 24 25 26 27 28 29 30 31 32 33 34 35 36 37 38 39 40 41 42 43 44 45 46 47 48 49 50
000
ASUS43 KLMK 232202
RWRKY
KENTUCKY REGIONAL WEATHER ROUNDUP
NATIONAL WEATHER SERVICE LOUISVILLE KY
600 PM EDT SUN JUL 23 2017

NOTE "FAIR" INDICATES FEW OR NO CLOUDS BELOW 12,000 FEET
WITH NO SIGNIFICANT WEATHER AND/OR OBSTRUCTIONS TO VISIBILITY.

KYZ001>023-026-027-061>063-070>075-232300-
WESTERN AND SOUTH CENTRAL KENTUCKY

CITY           SKY/WX    TMP DP  RH WIND       PRES   REMARKS
PADUCAH        FAIR      93  70  46 CALM      29.83F HX  99
HENDERSON      FAIR      87  72  60 MISG      29.85F HX  93
OWENSBORO      FAIR      87  70  56 NW9       29.85F HX  92
HOPKINSVILLE   FAIR      90  76  61 W8        29.84R HX 101
BOWLING GREEN  FAIR      93  75  55 NW10      29.84R HX 104
GLASGOW        NOT AVBL
$$

KYZ024-025-028>034-038-045-046-053-232300-
NORTH CENTRAL KENTUCKY

CITY           SKY/WX    TMP DP  RH WIND       PRES   REMARKS
LOUISVILLE/SDF FAIR      89  66  46 W15       29.83S HX  91
LOUISVILLE/LOU FAIR      87  68  52 W9        29.84S HX  90
FORT KNOX      FAIR      85  71  64 W7        29.84S HX  90
$$

KYZ035>037-039>044-047>052-055>060-089>105-232300-
NORTHEAST KENTUCKY

CITY           SKY/WX    TMP DP  RH WIND       PRES   REMARKS
LEXINGTON      FAIR      86  70  58 W10       29.86S HX  90
COVINGTON      FAIR      85  73  67 SW9       29.81S HX  91
FRANKFORT      FAIR      85  69  58 W7        29.84S
$$

KYZ054-064>069-076>088-106>120-232300-
SOUTHEAST KENTUCKY

CITY           SKY/WX    TMP DP  RH WIND       PRES   REMARKS
JACKSON        FAIR      86  69  56 VRB7      29.86F HX  90
LONDON         PTSUNNY   89  70  53 W12       29.85F HX  94
SOMERSET       FAIR      88  70  55 W10       29.86S HX  92
MIDDLESBORO    FAIR      89  74  61 S6        29.85F HX  97
MONTICELLO     FAIR      89  78  70 W12G22    29.86F HX 103
$$





USA.gov is the U.S. government's official web portal to all federal, state and local government web resources and services.